When you browse on this site, cookies collect data to enhance your experience and personalize the content and advertising you see.
Visit our Privacy Policy to learn more. By continuing to use the site, you agree to this use of cookies and data.
  • In Spain
  • List of Countries
  • For 7 days
  • Water Temperature
  • Satellite Maps
  • Weather Map
  • Weather Widgets
  • user-avatar
    Login

    Hourly Weather Bangalore

    Today, 23 April, Tuesday

    Time Temperature Precipitation Wind Pressure Humidity
    00:00 +28°C° 0 mm 4 mps 682 mmHg 61%
    01:00 +27°C° 0 mm 3 mps 682 mmHg 62%
    02:00 +27°C° 0 mm 2 mps 682 mmHg 63%
    03:00 +27°C° 0.3 mm 2 mps 682 mmHg 65%
    04:00 +27°C° 0.3 mm 2 mps 682 mmHg 66%
    05:00 +27°C° 0.3 mm 2 mps 682 mmHg 67%
    06:00 +27°C° 0 mm 2 mps 683 mmHg 63%
    07:00 +28°C° 0 mm 2 mps 684 mmHg 59%
    08:00 +29°C° 0 mm 2 mps 684 mmHg 55%
    09:00 +31°C° 0 mm 1 mps 684 mmHg 48%
    10:00 +33°C° 0 mm 1 mps 684 mmHg 41%
    11:00 +33°C° 0 mm 0 mps 684 mmHg 33%
    12:00 +34°C° 0 mm 1 mps 684 mmHg 31%
    13:00 +35°C° 0 mm 2 mps 683 mmHg 28%
    14:00 +35°C° 0 mm 2 mps 682 mmHg 26%
    15:00 +35°C° 0 mm 3 mps 682 mmHg 26%
    16:00 +35°C° 0 mm 3 mps 682 mmHg 25%
    17:00 +35°C° 0 mm 3 mps 682 mmHg 25%
    18:00 +34°C° 0 mm 3 mps 683 mmHg 29%
    19:00 +33°C° 0 mm 3 mps 683 mmHg 33%
    20:00 +33°C° 0 mm 3 mps 683 mmHg 37%
    21:00 +30°C° 0 mm 4 mps 684 mmHg 45%
    22:00 +29°C° 0 mm 5 mps 684 mmHg 53%
    23:00 +28°C° 0 mm 6 mps 684 mmHg 60%

    Tomorrow, 24 April, Wednesday

    Time Temperature Precipitation Wind Pressure Humidity
    00:00 +28°C° 0 mm 5 mps 684 mmHg 61%
    01:00 +27°C° 0 mm 3 mps 683 mmHg 62%
    02:00 +27°C° 0 mm 2 mps 683 mmHg 63%
    03:00 +26°C° 0 mm 2 mps 683 mmHg 65%
    04:00 +26°C° 0 mm 2 mps 683 mmHg 68%
    05:00 +25°C° 0 mm 2 mps 683 mmHg 70%
    06:00 +26°C° 0 mm 2 mps 683 mmHg 63%
    07:00 +28°C° 0 mm 2 mps 684 mmHg 57%
    08:00 +29°C° 0 mm 2 mps 685 mmHg 50%
    09:00 +31°C° 0 mm 3 mps 685 mmHg 40%
    10:00 +34°C° 0 mm 3 mps 685 mmHg 31%
    11:00 +36°C° 0 mm 4 mps 685 mmHg 22%
    12:00 +37°C° 0 mm 4 mps 684 mmHg 21%
    13:00 +37°C° 0 mm 5 mps 684 mmHg 20%
    14:00 +39°C° 0 mm 5 mps 683 mmHg 19%
    15:00 +37°C° 0 mm 5 mps 683 mmHg 20%
    16:00 +37°C° 0 mm 5 mps 682 mmHg 21%
    17:00 +36°C° 0 mm 5 mps 682 mmHg 22%
    18:00 +35°C° 0 mm 5 mps 682 mmHg 25%
    19:00 +34°C° 0 mm 5 mps 683 mmHg 27%
    20:00 +33°C° 0 mm 5 mps 683 mmHg 30%
    21:00 +32°C° 0 mm 4 mps 684 mmHg 33%
    22:00 +30°C° 0 mm 4 mps 684 mmHg 37%
    23:00 +30°C° 0 mm 4 mps 684 mmHg 40%

    Day after tomorrow, 25 April, Thursday

    Time Temperature Precipitation Wind Pressure Humidity
    00:00 +29°C° 0 mm 3 mps 683 mmHg 43%
    01:00 +28°C° 0 mm 3 mps 683 mmHg 46%
    02:00 +27°C° 0 mm 2 mps 682 mmHg 49%
    03:00 +27°C° 0 mm 2 mps 682 mmHg 50%
    04:00 +26°C° 0 mm 2 mps 682 mmHg 52%
    05:00 +26°C° 0 mm 2 mps 682 mmHg 54%
    06:00 +27°C° 0 mm 2 mps 683 mmHg 50%
    07:00 +28°C° 0 mm 2 mps 684 mmHg 46%
    08:00 +29°C° 0 mm 2 mps 685 mmHg 42%
    09:00 +31°C° 0 mm 2 mps 685 mmHg 35%
    10:00 +34°C° 0 mm 3 mps 685 mmHg 28%
    11:00 +36°C° 0 mm 3 mps 685 mmHg 21%
    12:00 +37°C° 0 mm 3 mps 684 mmHg 19%
    13:00 +38°C° 0 mm 4 mps 683 mmHg 17%
    14:00 +40°C° 0 mm 4 mps 683 mmHg 14%
    15:00 +38°C° 0 mm 4 mps 683 mmHg 15%
    16:00 +39°C° 0 mm 5 mps 682 mmHg 16%
    17:00 +37°C° 0 mm 5 mps 682 mmHg 16%
    18:00 +36°C° 0 mm 5 mps 683 mmHg 19%
    19:00 +35°C° 0 mm 5 mps 683 mmHg 22%
    20:00 +33°C° 0 mm 5 mps 684 mmHg 25%
    21:00 +33°C° 0 mm 4 mps 684 mmHg 28%
    22:00 +32°C° 0 mm 4 mps 684 mmHg 31%
    23:00 +30°C° 0 mm 3 mps 684 mmHg 34%

    26 April, Friday

    Time Temperature Precipitation Wind Pressure Humidity
    00:00 +29°C° 0 mm 3 mps 683 mmHg 38%
    01:00 +29°C° 0 mm 3 mps 683 mmHg 43%
    02:00 +28°C° 0 mm 3 mps 682 mmHg 47%
    03:00 +27°C° 0 mm 2 mps 682 mmHg 51%
    04:00 +27°C° 0 mm 2 mps 682 mmHg 54%
    05:00 +26°C° 0 mm 2 mps 682 mmHg 58%
    06:00 +27°C° 0 mm 2 mps 682 mmHg 56%
    07:00 +28°C° 0 mm 2 mps 683 mmHg 53%
    08:00 +29°C° 0 mm 3 mps 684 mmHg 51%
    09:00 +31°C° 0 mm 3 mps 684 mmHg 42%
    10:00 +34°C° 0 mm 3 mps 684 mmHg 33%
    11:00 +36°C° 0 mm 3 mps 684 mmHg 24%
    12:00 +37°C° 0 mm 3 mps 684 mmHg 22%
    13:00 +38°C° 0 mm 4 mps 683 mmHg 19%
    14:00 +40°C° 0 mm 5 mps 682 mmHg 17%
    15:00 +40°C° 0 mm 4 mps 682 mmHg 17%
    16:00 +38°C° 0 mm 4 mps 681 mmHg 18%
    17:00 +37°C° 0 mm 4 mps 681 mmHg 19%
    18:00 +36°C° 0 mm 4 mps 682 mmHg 20%
    19:00 +35°C° 0 mm 5 mps 682 mmHg 22%
    20:00 +34°C° 0 mm 5 mps 683 mmHg 23%
    21:00 +34°C° 0 mm 4 mps 683 mmHg 25%
    22:00 +33°C° 0 mm 4 mps 683 mmHg 27%
    23:00 +32°C° 0 mm 4 mps 683 mmHg 29%

    27 April, Saturday

    Time Temperature Precipitation Wind Pressure Humidity
    00:00 +30°C° 0 mm 3 mps 683 mmHg 32%
    01:00 +30°C° 0 mm 3 mps 682 mmHg 35%
    02:00 +29°C° 0 mm 3 mps 682 mmHg 39%
    03:00 +28°C° 0 mm 2 mps 681 mmHg 44%
    04:00 +27°C° 0 mm 2 mps 681 mmHg 50%
    05:00 +27°C° 0 mm 2 mps 681 mmHg 56%
    06:00 +28°C° 0 mm 2 mps 682 mmHg 54%
    07:00 +29°C° 0 mm 3 mps 683 mmHg 53%
    08:00 +30°C° 0 mm 3 mps 684 mmHg 52%
    09:00 +33°C° 0 mm 3 mps 684 mmHg 44%
    10:00 +35°C° 0 mm 3 mps 684 mmHg 36%
    11:00 +36°C° 0 mm 3 mps 684 mmHg 29%
    12:00 +37°C° 0 mm 2 mps 683 mmHg 25%
    13:00 +38°C° 0 mm 2 mps 682 mmHg 22%
    14:00 +39°C° 0 mm 2 mps 681 mmHg 19%
    15:00 +38°C° 0 mm 2 mps 681 mmHg 20%
    16:00 +38°C° 0 mm 2 mps 681 mmHg 21%
    17:00 +37°C° 0 mm 2 mps 681 mmHg 22%
    18:00 +37°C° 0 mm 2 mps 682 mmHg 23%
    19:00 +36°C° 0 mm 2 mps 682 mmHg 24%
    20:00 +36°C° 0 mm 2 mps 683 mmHg 25%
    21:00 +35°C° 0 mm 2 mps 683 mmHg 27%
    22:00 +34°C° 0 mm 2 mps 683 mmHg 28%
    23:00 +34°C° 0 mm 2 mps 683 mmHg 29%

    28 April, Sunday

    Time Temperature Precipitation Wind Pressure Humidity
    00:00 +32°C° 0 mm 2 mps 682 mmHg 34%
    01:00 +31°C° 0 mm 2 mps 682 mmHg 40%
    02:00 +29°C° 0 mm 2 mps 681 mmHg 45%
    03:00 +29°C° 0 mm 2 mps 681 mmHg 51%
    04:00 +28°C° 0 mm 2 mps 681 mmHg 57%
    05:00 +28°C° 0 mm 2 mps 681 mmHg 64%
    06:00 +29°C° 0 mm 2 mps 682 mmHg 60%
    07:00 +30°C° 0 mm 2 mps 683 mmHg 57%
    08:00 +30°C° 0 mm 3 mps 683 mmHg 53%
    09:00 +32°C° 0 mm 2 mps 683 mmHg 46%
    10:00 +34°C° 0 mm 1 mps 683 mmHg 38%
    11:00 +36°C° 0 mm 1 mps 683 mmHg 30%
    12:00 +37°C° 0 mm 1 mps 682 mmHg 27%
    13:00 +39°C° 0 mm 1 mps 681 mmHg 24%
    14:00 +39°C° 0 mm 2 mps 681 mmHg 21%
    15:00 +39°C° 0 mm 1 mps 681 mmHg 21%
    16:00 +37°C° 0 mm 1 mps 681 mmHg 22%
    17:00 +37°C° 0 mm 1 mps 681 mmHg 22%
    18:00 +36°C° 0 mm 1 mps 681 mmHg 24%
    19:00 +36°C° 0 mm 2 mps 682 mmHg 26%
    20:00 +36°C° 0 mm 3 mps 682 mmHg 29%
    21:00 +34°C° 1.5 mm 3 mps 683 mmHg 35%
    22:00 +33°C° 1.5 mm 3 mps 683 mmHg 40%
    23:00 +30°C° 1.5 mm 3 mps 683 mmHg 46%
    Show more